[[{"header":{"parameterUnit":"m.s-1","parameterCategory":1,"la1":30.2991,"la2":30.254,"lo1":-89.0895,"lo2":-89.0444,"dy":0.0017,"dx":0.0017,"nx":28,"ny":28,"refTime":"2024-06-08T21:00:00:Z","depth":0,"parameterNumber":2,"parameterNumberName":"U-component_of_WINDS"},"data":[0,0,0,0,0,0,0,0,0,0,0,0,0,0,0,0,0,0,0,0,0,0,0,0,0,0,0,0,0,0,0,0,0,0,0,0,0,0,0,0,0,0,0,0,0,0,0,0,0,0,0,0,0,0,0,0,0,0,-2.3886,-2.3885,0,-2.3827,-2.3826,-2.3826,-2.3723,-2.3721,-2.3719,-2.3717,-2.3658,-2.3658,-2.3658,0,0,0,0,0,0,0,0,0,0,0,0,0,-2.3912,-2.3912,-2.3886,-2.3885,-2.3884,-2.3827,-2.3826,-2.3825,-2.3723,-2.3721,-2.3719,-2.3717,-2.3658,-2.3658,-2.3658,0,0,0,0,0,0,0,0,0,0,0,0,0,-2.3882,-2.3912,-2.3886,-2.3827,-2.3821,-2.3827,-2.3826,-2.3825,-2.3724,-2.3721,-2.3718,-2.3715,-2.3657,-2.3658,-2.3658,-2.3718,0,0,-2.3659,-2.3659,0,0,0,0,0,0,0,0,-2.3884,-2.3881,-2.3836,-2.3831,-2.3824,-2.3779,-2.3813,-2.3789,-2.3725,-2.3761,-2.3717,-2.3714,-2.37,-2.3697,-2.3692,-2.3715,-2.3713,-2.3659,-2.3659,-2.3659,-2.3659,0,0,0,0,0,0,0,-2.3886,-2.3883,-2.3862,-2.3836,-2.3828,-2.3804,-2.3796,-2.3808,-2.3748,-2.3757,-2.375,-2.3744,-2.3697,-2.3692,-2.369,-2.3712,-2.3659,-2.3659,-2.3659,-2.366,-2.3782,-2.3785,0,0,0,0,0,0,-2.3896,-2.3885,-2.3864,-2.3861,-2.3847,-2.3805,-2.3797,-2.3797,-2.3747,-2.3737,-2.3747,-2.374,-2.3693,-2.369,-2.3688,-2.3755,-2.3659,-2.366,-2.366,-2.3779,-2.3783,-2.3786,0,0,0,0,0,0,-2.3897,-2.3895,-2.3867,-2.3871,-2.3865,-2.3808,-2.3808,-2.3797,-2.3792,-2.3739,-2.3728,-2.3753,-2.3691,-2.3687,-2.3711,-2.3751,-2.366,-2.366,-2.3776,-2.378,-2.3785,-2.389,0,0,0,0,0,0,-2.3899,-2.3896,-2.3918,-2.3872,-2.3866,-2.3891,-2.3811,-2.3798,-2.3793,-2.3783,-2.3742,-2.3733,-2.3688,-2.3712,-2.3712,-2.375,-2.366,-2.3772,-2.3778,-2.3783,-2.3882,-2.3897,-2.391,0,0,0,0,0,-2.39,-2.395,-2.3919,-2.3917,-2.3891,-2.3893,-2.389,-2.3837,-2.3797,-2.3818,-2.3785,-2.3734,-2.3748,-2.3715,-2.3714,-2.3753,-2.3769,-2.3776,-2.3783,-2.3876,-2.3894,-2.391,0,0,0,0,0,0,-2.4001,-2.3942,-2.3908,-2.3945,-2.3925,-2.3876,-2.3901,-2.3858,-2.3849,-2.3841,-2.3777,-2.3768,-2.3801,-2.378,-2.3744,-2.381,-2.375,-2.3758,-2.3822,-2.3839,-2.3852,-2.3856,-2.3661,0,0,0,0,0,-2.4028,-2.4034,-2.3983,-2.402,-2.4012,-2.3959,-2.3958,-2.392,-2.3897,-2.3888,-2.3855,-2.3835,-2.3835,-2.3836,-2.3833,-2.388,-2.3869,-2.3907,-2.392,-2.3932,-2.3938,-2.3963,-2.3978,-2.3809,-2.3809,-2.3809,0,0,-2.4082,-2.4051,-2.4059,-2.404,-2.4019,-2.4028,-2.3952,-2.3964,-2.397,-2.3889,-2.391,-2.3886,-2.386,-2.3896,-2.391,-2.3879,-2.3984,-2.3941,-2.3951,-2.395,-2.3971,-2.3987,-2.4002,-2.3814,-2.3813,-2.3812,0,0,-2.4186,-2.4164,-2.4192,-2.4174,-2.4146,-2.411,-2.4118,-2.4076,-2.4057,-2.4077,-2.4017,-2.4024,-2.4025,-2.4009,-2.4001,-2.4102,-2.4055,-2.4103,-2.4175,-2.4199,-2.4212,-2.4224,-2.426,-2.4274,-2.411,-2.411,-2.4111,0,-2.4258,-2.4267,-2.4212,-2.4228,-2.4222,-2.4151,-2.418,-2.4165,-2.4137,-2.4135,-2.4101,-2.4101,-2.4078,-2.411,-2.4135,-2.4131,-2.4138,-2.4106,-2.4215,-2.4226,-2.4236,-2.4269,-2.4283,-2.4116,-2.4116,-2.4115,-2.4114,0,-2.4357,-2.4365,-2.4392,-2.4367,-2.4364,-2.4387,-2.4336,-2.434,-2.4303,-2.4272,-2.4294,-2.4265,-2.4255,-2.426,-2.4224,-2.4288,-2.4269,-2.4227,-2.4165,-2.4259,-2.4289,-2.4302,-2.4125,-2.4123,-2.4121,-2.4119,0,0,-2.452,-2.4466,-2.4477,-2.4465,-2.4429,-2.4435,-2.4456,-2.4446,-2.4451,-2.4435,-2.4451,-2.4455,-2.4415,-2.4406,-2.4368,-2.439,-2.4473,-2.4344,-2.4343,-2.4368,-2.4541,-2.4573,-2.4588,-2.4443,-2.4445,-2.4447,-2.4543,0,-2.4615,-2.4646,-2.4598,-2.464,-2.4647,-2.4581,-2.4599,-2.458,-2.4553,-2.4556,-2.4526,-2.4529,-2.4477,-2.4472,-2.449,-2.4459,-2.4506,-2.4451,-2.4457,-2.4457,-2.4463,-2.4604,-2.4637,-2.4729,-2.4555,-2.4557,-2.4558,0,-2.4729,-2.4719,-2.4762,-2.4726,-2.4727,-2.4744,-2.4732,-2.4736,-2.4714,-2.4693,-2.4685,-2.464,-2.4659,-2.4602,-2.4627,-2.4591,-2.4591,-2.4576,-2.4578,-2.4575,-2.4512,-2.4604,-2.4757,-2.4771,-2.4576,-2.4575,-2.4574,0,-2.4843,-2.4841,-2.4866,-2.4859,-2.4817,-2.483,-2.4814,-2.4789,-2.4787,-2.4777,-2.4776,-2.4769,-2.4765,-2.4761,-2.4717,-2.4679,-2.4748,-2.4687,-2.473,-2.4731,-2.4745,-2.4745,-2.49,-2.4749,-2.4748,-2.4748,-2.4748,0,-2.4953,-2.4982,-2.4917,-2.4932,-2.4963,-2.4909,-2.4942,-2.4918,-2.4897,-2.4908,-2.4851,-2.4863,-2.4804,-2.4809,-2.4775,-2.4801,-2.48,-2.4784,-2.4774,-2.4788,-2.479,-2.4785,-2.4777,-2.4752,-2.4751,-2.475,-2.475,0,-2.5084,-2.5042,-2.5065,-2.5024,-2.5015,-2.504,-2.5005,-2.5018,-2.4989,-2.5003,-2.5003,-2.4957,-2.496,-2.4916,-2.4911,-2.4888,-2.493,-2.491,-2.4937,-2.493,-2.4976,-2.4972,-2.5132,-2.515,-2.4989,-2.4991,-2.4992,0,-2.5156,-2.5177,-2.5139,-2.5142,-2.5128,-2.5134,-2.5132,-2.5081,-2.5081,-2.5059,-2.5076,-2.5075,-2.5071,-2.5081,-2.5046,-2.5043,-2.5021,-2.5078,-2.502,-2.5034,-2.5021,-2.502,-2.5022,-2.5089,-2.5091,-2.5093,-2.5094,0,-2.5289,-2.5267,-2.5266,-2.5259,-2.5258,-2.525,-2.5238,-2.5244,-2.5189,-2.5193,-2.5196,-2.5193,-2.5189,-2.5189,-2.518,-2.5163,-2.512,-2.5113,-2.5123,-2.5136,-2.5151,-2.5143,-2.4969,-2.5109,-2.5108,-2.5106,-2.5106,-2.5105,-2.5391,-2.5407,-2.5383,-2.5384,-2.5371,-2.5361,-2.5372,-2.5344,-2.5346,-2.5338,-2.5309,-2.5318,-2.5297,-2.528,-2.5268,-2.5275,-2.5247,-2.5261,-2.5265,-2.5269,-2.5277,-2.5152,-2.5273,-2.5273,-2.5272,-2.5272,-2.5271,0,-2.552,-2.5502,-2.5504,-2.5489,-2.5491,-2.5452,-2.5437,-2.5441,-2.5449,-2.5434,-2.5432,-2.5437,-2.5437,-2.5405,-2.5402,-2.5413,-2.5394,-2.5414,-2.5412,-2.5409,-2.5302,-2.5293,-2.543,-2.543,-2.543,-2.543,-2.543,-2.543,-2.5587,-2.5611,-2.5588,-2.5605,-2.5587,-2.5595,-2.559,-2.5582,-2.557,-2.5577,-2.5578,-2.5557,-2.5535,-2.553,-2.5529,-2.552,-2.5521,-2.5548,-2.5532,-2.5432,-2.5416,-2.5401,-2.5393,-2.5549,-2.5549,-2.5638,-2.5639,-2.5639]},{"header":{"parameterUnit":"m.s-1","parameterCategory":1,"la1":30.2991,"la2":30.254,"lo1":-89.0895,"lo2":-89.0444,"dy":0.0017,"dx":0.0017,"nx":28,"ny":28,"refTime":"2024-06-08T21:00:00:Z","depth":0,"parameterNumber":3,"parameterNumberName":"V-component_of_WINDS"},"data":[0,0,0,0,0,0,0,0,0,0,0,0,0,0,0,0,0,0,0,0,0,0,0,0,0,0,0,0,0,0,0,0,0,0,0,0,0,0,0,0,0,0,0,0,0,0,0,0,0,0,0,0,0,0,0,0,0,0,3.3978,3.3978,0,3.4034,3.4035,3.4035,3.4103,3.4104,3.4105,3.4106,3.416,3.416,3.4161,0,0,0,0,0,0,0,0,0,0,0,0,0,3.3926,3.3927,3.3977,3.3978,3.3979,3.4034,3.4035,3.4035,3.4103,3.4104,3.4106,3.4107,3.416,3.416,3.4161,0,0,0,0,0,0,0,0,0,0,0,0,0,3.3962,3.3927,3.3977,3.4019,3.4024,3.4034,3.4035,3.4036,3.4103,3.4104,3.4106,3.4107,3.4159,3.416,3.4161,3.4132,0,0,3.4163,3.4163,0,0,0,0,0,0,0,0,3.396,3.3964,3.4013,3.4017,3.4021,3.4063,3.4036,3.4068,3.4102,3.4073,3.4106,3.4108,3.4126,3.4129,3.4136,3.4135,3.4137,3.4163,3.4163,3.4163,3.4163,0,0,0,0,0,0,0,3.3957,3.3962,3.4,3.4013,3.4019,3.4035,3.4041,3.4042,3.4089,3.4075,3.408,3.4086,3.4129,3.4136,3.4138,3.4138,3.4163,3.4163,3.4164,3.4164,3.4117,3.4115,0,0,0,0,0,0,3.3949,3.3959,3.3998,3.4001,3.3994,3.4034,3.4042,3.4048,3.409,3.4098,3.4085,3.4089,3.4134,3.4137,3.414,3.411,3.4163,3.4164,3.4164,3.4119,3.4117,3.4115,0,0,0,0,0,0,3.3947,3.3952,3.3996,3.3982,3.3989,3.4033,3.404,3.4048,3.4055,3.4097,3.4105,3.4083,3.4135,3.4139,3.4134,3.4113,3.4164,3.4165,3.4121,3.4118,3.4116,3.4049,0,0,0,0,0,0,3.3946,3.3951,3.3941,3.3981,3.3989,3.3989,3.4039,3.4048,3.4057,3.4063,3.4098,3.4105,3.4137,3.4133,3.4135,3.4114,3.4165,3.4123,3.4119,3.4117,3.4053,3.4044,3.4037,0,0,0,0,0,3.3944,3.3919,3.394,3.3944,3.3978,3.3988,3.3992,3.403,3.4055,3.4045,3.4072,3.4104,3.4115,3.4132,3.4135,3.4114,3.4124,3.412,3.4117,3.4057,3.4046,3.4037,0,0,0,0,0,0,3.3872,3.3924,3.3949,3.3936,3.3957,3.3999,3.3988,3.4018,3.4031,3.4036,3.4082,3.4089,3.4078,3.4096,3.4114,3.4089,3.4125,3.4121,3.4078,3.4068,3.406,3.4055,3.4166,0,0,0,0,0,3.3856,3.3861,3.3906,3.389,3.39,3.3942,3.3948,3.3976,3.3999,3.4007,3.4034,3.4054,3.4063,3.4067,3.4077,3.4057,3.4065,3.4044,3.4036,3.4029,3.4025,3.4016,3.4007,3.4103,3.4103,3.4103,0,0,3.382,3.3849,3.3849,3.3877,3.3896,3.3899,3.3949,3.395,3.3952,3.4007,3.4004,3.4025,3.405,3.4038,3.4034,3.4052,3.4001,3.4025,3.4019,3.4018,3.4011,3.4002,3.3994,3.41,3.4101,3.4101,0,0,3.3757,3.378,3.377,3.3789,3.3819,3.3848,3.3846,3.3884,3.39,3.3898,3.394,3.3943,3.3957,3.3973,3.3983,3.3929,3.3959,3.3931,3.3888,3.3878,3.3871,3.3864,3.3844,3.3836,3.3928,3.3927,3.3927,0,3.3708,3.3716,3.376,3.376,3.377,3.3823,3.3812,3.3829,3.3859,3.3865,3.3886,3.3905,3.3926,3.3918,3.3905,3.3912,3.391,3.3926,3.3869,3.3863,3.3857,3.3838,3.383,3.3924,3.3924,3.3924,3.3925,0,3.3655,3.3659,3.3648,3.3678,3.3688,3.3682,3.3725,3.3729,3.3757,3.3783,3.3781,3.3809,3.3825,3.3826,3.3852,3.3822,3.3832,3.3861,3.3896,3.3843,3.3826,3.382,3.3918,3.392,3.3921,3.3922,0,0,3.3545,3.3603,3.3597,3.3612,3.365,3.3654,3.3651,3.3669,3.3672,3.3692,3.369,3.3701,3.3728,3.3739,3.3768,3.376,3.3715,3.379,3.3791,3.3774,3.3682,3.366,3.365,3.3736,3.3735,3.3734,3.368,0,3.3487,3.3486,3.3527,3.3514,3.3519,3.357,3.3567,3.359,3.3615,3.3622,3.365,3.3657,3.3692,3.3699,3.3694,3.3722,3.3697,3.3726,3.3733,3.3732,3.3723,3.3642,3.3617,3.3565,3.3674,3.3673,3.3672,0,3.3419,3.3437,3.3425,3.3465,3.3469,3.3466,3.3486,3.3493,3.352,3.3539,3.3553,3.3587,3.3586,3.3622,3.3621,3.364,3.3645,3.366,3.3659,3.3659,3.3697,3.3638,3.3549,3.354,3.3662,3.3663,3.3663,0,3.3338,3.336,3.3356,3.3368,3.3414,3.3411,3.343,3.3459,3.3468,3.3486,3.3492,3.3508,3.3517,3.3529,3.3567,3.359,3.3561,3.36,3.3575,3.3574,3.3564,3.3564,3.3473,3.3571,3.3571,3.3571,3.3572,0,3.3268,3.3258,3.3321,3.3318,3.3308,3.3356,3.3345,3.3369,3.3395,3.3397,3.3443,3.3444,3.3494,3.3501,3.353,3.3524,3.3528,3.3542,3.355,3.3537,3.3535,3.3539,3.3543,3.3569,3.357,3.357,3.3571,0,3.3175,3.3217,3.3216,3.3262,3.3273,3.3264,3.3302,3.3301,3.3331,3.3333,3.3336,3.3381,3.3391,3.3431,3.345,3.347,3.3453,3.3469,3.3444,3.3449,3.3421,3.3422,3.3328,3.3318,3.3424,3.3423,3.3422,0,3.3127,3.3121,3.3167,3.3172,3.319,3.3198,3.3208,3.3256,3.3264,3.3295,3.329,3.3304,3.3318,3.3331,3.3365,3.338,3.3395,3.3362,3.3398,3.3385,3.3393,3.3392,3.3391,3.3352,3.3351,3.335,3.3349,0,3.3036,3.3057,3.307,3.3091,3.3102,3.312,3.3141,3.3142,3.3195,3.3202,3.3214,3.3225,3.3246,3.3258,3.3279,3.3298,3.3331,3.3338,3.3333,3.3318,3.3303,3.331,3.3421,3.3339,3.334,3.3341,3.3341,3.3342,3.2962,3.296,3.2992,3.3005,3.3027,3.3046,3.3047,3.3078,3.3089,3.311,3.3138,3.3146,3.3174,3.3207,3.3223,3.3229,3.3248,3.3241,3.3239,3.3235,3.3229,3.3305,3.3234,3.3234,3.3234,3.3235,3.3235,0,3.2872,3.2897,3.2909,3.2937,3.2948,3.2982,3.3007,3.3013,3.302,3.3045,3.3058,3.3072,3.3085,3.3121,3.3138,3.3136,3.3152,3.3139,3.3138,3.3142,3.3212,3.3214,3.3126,3.3126,3.3126,3.3126,3.3126,3.3126,3.2826,3.2824,3.2849,3.2858,3.2882,3.2892,3.2903,3.2921,3.2941,3.2955,3.2967,3.2991,3.302,3.304,3.3053,3.3064,3.3067,3.3048,3.3063,3.3127,3.3137,3.3147,3.3149,3.3049,3.3049,3.2993,3.2992,3.2992]}]]